Regional Weather Roundup
Issued by NWS Upton, NY

Current Version | Previous Version | Graphics & Text | Print | Product List | Glossary Off
Versions: 1 2 3 4 5 6 7 8 9 10 11 12 13 14 15 16 17 18 19 20 21 22 23 24 25 26 27

000
ASUS41 KOKX 250505
RWROKX

REGIONAL WEATHER ROUNDUP
NATIONAL WEATHER SERVICE NEW YORK NY
100 AM EDT WED MAY 25 2016

NOTE: "FAIR" INDICATES FEW OR NO CLOUDS BELOW 12,000 FEET WITH NO
SIGNIFICANT WEATHER AND/OR OBSTRUCTIONS TO VISIBILITY.

NYZ071-072-176-178-NJZ106-104-250600-
NEW YORK CITY METRO AREA


CITY           SKY/WX    TMP DP  RH WIND       PRES   REMARKS
CENTRAL PARK   CLOUDY    64  50  60 W3        30.02R
LAGUARDIA APRT CLOUDY    64  59  83 CALM      29.99R
KENNEDY INTL   CLOUDY    62  57  83 SW5       30.00S
NEWARK/LIBERTY PTCLDY    64  53  67 W7        29.99S
BRNX BOT. GARD   N/A     61  52  72 NE1       30.02R
TETERBORO      CLEAR     63  51  65 CALM      29.99R
$$

NYZ177-179-078>081-250600-
LONG ISLAND NEW YORK

CITY           SKY/WX    TMP DP  RH WIND       PRES   REMARKS
FARMINGDALE    PTCLDY    60  57  89 CALM      29.99S
ISLIP          MOCLDY    59  57  93 W5        29.99R
SHIRLEY        MOCLDY    58  56  93 CALM      30.00S
RIVERHEAD        N/A     54  54 100 CALM      29.98S
WESTHAMPTON    FOG       48  48 100 CALM      30.01R VSB 1/4
EAST HAMPTON   MOCLDY    52  51  98 CALM      29.99R
MONTAUK POINT    N/A     57  57 100 CALM      30.00R
$$

NYZ052-065-067-250600-
HUDSON VALLEY

CITY           SKY/WX    TMP DP  RH WIND       PRES   REMARKS
WHITE PLAINS   CLOUDY    58  55  90 NW3       29.99S
NEWBURGH       CLEAR     55  54  94 CALM      30.01
MONTGOMERY     CLEAR     50  49  96 SW3       29.99S
POUGHKEEPSIE   CLEAR     57  54  89 CALM      29.98S
ALBANY         PTCLDY    55  53  93 CALM      29.98R
$$

NJZ001-105-106-008-010-013-015-019>022-104-250600-
NEW JERSEY

CITY           SKY/WX    TMP DP  RH WIND       PRES   REMARKS
NEWARK/LIBERTY PTCLDY    64  53  67 W7        29.99S
TETERBORO      CLEAR     63  51  65 CALM      29.99R
CALDWELL       CLEAR     58  53  84 CALM      30.01R
MORRISTOWN     CLEAR     52  50  93 CALM      30.01S
SOMERVILLE     CLEAR     53  51  93 CALM      30.00S FOG
SUSSEX         CLEAR     51  49  92 CALM      30.02S
ANDOVER          N/A     53  51  93 CALM      30.03S
TRENTON        CLEAR     58  53  84 NW5       30.01R
MILLVILLE      CLEAR     64  53  67 W5        30.01S
ATLANTIC CITY  PTCLDY    60  54  80 MISG      30.01R
WRIGHTSTOWN    NOT AVBL
TOMS RIVER     CLEAR     54  48  82 CALM      30.01S
BELMAR         PTCLDY    58  54  86 CALM      30.02S
$$

PAZ047>061-062-071-250600-
EASTERN PENNSYLVANIA

CITY           SKY/WX    TMP DP  RH WIND       PRES   REMARKS
PHILADELPHIA   CLEAR     65  53  65 CALM      30.03R
ALLENTOWN      CLEAR     57  51  80 CALM      30.03S
SCRANTON       CLEAR     57  43  59 SE5       30.03R
$$

CTZ002-004>006-009-010-012-RIZ004-006-007-MAZ004-011-015-250600-
SOUTHERN NEW ENGLAND
 IN CT

CITY           SKY/WX    TMP DP  RH WIND       PRES   REMARKS
BRADLEY INTL   MOCLDY    56  54  93 W5        29.98S
HARTFORD       CLEAR     58  55  90 CALM      29.99S
DANBURY        CLOUDY    58  56  93 CALM      30.00S
WTRBRY/OXFORD    N/A     55  52  88 CALM      30.00F
BRIDGEPORT     PTCLDY    60  58  92 CALM      29.99R
MERIDEN        PTCLDY    54  51  90 CALM      29.99F FOG
NEW HAVEN      PTCLDY    55  54  96 CALM      29.99S FOG
CHESTER        FAIR      55  54  94 CALM      30.00R
GROTON         FOG       56  56 100 S5        29.98S VSB 3/4
WILLIMANTIC    FOG       54  52  93 W3        29.99R VSB 1/4

 IN RI

CITY           SKY/WX    TMP DP  RH WIND       PRES   REMARKS
PROVIDENCE     CLOUDY    56  53  90 NW3       29.99S
BLOCK ISLAND   CLOUDY    55  55 100 CALM      30.00R FOG
WESTERLY       CLOUDY    58  54  86 CALM      29.99R

 IN MA

CITY           SKY/WX    TMP DP  RH WIND       PRES   REMARKS
BOSTON         CLOUDY    53  51  93 N3        29.99R
WORCESTER      CLEAR     54  51  90 CALM      29.98S
WESTFIELD      LGT RAIN  52  51  97 CALM      29.99R FOG
PROVINCETOWN   FOG       51  51 100 N5        29.97S VSB 3/4
NANTUCKET      CLOUDY    56  54  93 W8        29.95S FOG
$$

ANZ330-335-338-340-345-350-353-355-250600-
COASTAL MARINE OBSERVATIONS


STATION/POSITION TIME  SKY/WX   TEMP    WIND        PRES    VSBY  WAVE
                                AIR SEA DIR/SP/G                  HT/PER
                 (UTC)          (F)     (DEG/KT/KT) (MB)    (MI)  (FT/S)
NY HARB ENTRANCE 0350            60 58  220/  6/  6 1015.1          3/ 8
20S FIRE ISLAND  0350            58 54  220/  8/ 10 1014.9          3/ 8
GREAT SOUTH BAY  0400            62 64  210/  2/  4   N/A
23 SSW MONTAUK P 0350            55 54  220/  2/  4 1014.8          4/ 8
15 E BARNEGAT LI 0422               56                N/A           3/ 8
HUDSON CANYON    0350            56 53              1015.8          3/ 9
KINGS POINT      0400            60 56              1015.1
EXECUTION ROCKS  NOT AVBL
CENTRAL LI SOUND 0445            57      CALM  /  2   N/A           0
EASTERN LI SOUND 0400            55 52  210/  4/  4   N/A
ROBBINS REEF     0406            67     260/  5/  6 1014.9
$$


>>>>>>>>>>>>>>>>>>>>>>>>>>>> KEY <<<<<<<<<<<<<<<<<<<<<<<<<<<
>                                                          <
>     SKY/WX - SKY CONDITION/PRESENT WEATHER               <
>     TMP    - TEMPERATURE IN FAHRENHEIT                   <
>     DP     - DEWPOINT IN FAHRENHEIT                      <
>     RH     - RELATIVE HUMIDITY IN PERCENT                <
>     WIND   - DIRECTION AND SPEED IN MPH                  <
>     PRES   - MEAN SEA LEVEL PRESSURE IN INCHES OF HG     <
>     WCI    - WIND CHILL INDEX                            <
>     VSB    - VISIBILITY IN MILES                         <
>     HX     - HEAT INDEX                                  <
>     TC     - TEMPERATURE IN CELSIUS                      <
>     VRB    - VARIABLE WIND DIRECTION                     <
>                                                          <
>>>>>>>>>>>>>>>>>>>>>>>>>>>> KEY <<<<<<<<<<<<<<<<<<<<<<<<<<<






USA.gov is the U.S. government's official web portal to all federal, state and local government web resources and services.